{"data":{"norad_id":61070,"intl_designator":"2024-164W","name":"STARLINK-32375","alt_names":[],"object_type":"PAYLOAD","status":"ACTIVE","operator":null,"country":"US","launch_date":"2024-09-13","launch_site_code":"AFWTR","launch_vehicle":null,"mission":null,"orbit_class":"UNKNOWN","rcs_meters":null,"size_class":null,"mass_kg":null,"dimensions":null,"purposes":["comms"],"wikipedia_slug":null,"has_3d_model":false,"image_url":null,"decayed_at":null,"tle_current":{"epoch":"2026-09-21T00:10:55.542720Z","epoch_age_seconds":148304,"freshness":"FRESH","line1":"1 61070U 24164W   26264.00758730  .00000218  00000+0  17589-4 0  9995","line2":"2 61070  53.1616 263.0348 0001403  84.0468 276.0695 15.34390309113391","mean_motion":15.34390309,"eccentricity":0.0001403,"inclination_deg":53.1616,"raan_deg":263.0348,"arg_perigee_deg":84.0468,"mean_anomaly_deg":276.0695,"bstar":1.7589e-5,"rev_number":11339,"period_min":93.84835081098,"perigee_km":461.77227012611,"apogee_km":463.69181797987,"semimajor_km":6840.869044053,"source":"CELESTRAK","updated_at":"2026-09-22T09:00:49.337699Z"}}}